Tucson, AZ

12:27 AM MST on March 29, 2017 (GMT -0700)
Tucson International

Weather History for KTUS - September, 2011

Change the Weather History Date:

Sunday, September 4, 2011

  Actual Average Record
Temperature  
Mean Temperature 92 °F 84 °F  
Max Temperature 106 °F 97 °F 106 °F (1945)
Min Temperature 77 °F 72 °F 56 °F (1961)
Degree Days  
Heating Degree Days 0 0  
Month to date heating degree days 0 0  
Since 1 July heating degree days 0 0  
Cooling Degree Days 27 19  
Month to date cooling degree days 106 79  
Year to date cooling degree days 2741 2489  
Growing Degree Days 42 (Base 50)    
Moisture  
Dew Point 52 °F    
Average Humidity 30    
Maximum Humidity 46    
Minimum Humidity 13    
Precipitation  
Precipitation 0.00 in 0.06 in 1.90 in (1970)
Month to date precipitation T 0.23  
Year to date precipitation 3.57 8.14  
Snow  
Snow 0.00 in - - ()
Month to date snowfall 0.0  
Snow Depth 0.00 in    
Sea Level Pressure  
Sea Level Pressure 29.76 in    
Wind  
Wind Speed 7 mph (South)    
Max Wind Speed 21 mph    
Max Gust Speed 24 mph    
Visibility 10 miles    
Events      
T = Trace of Precipitation, MM = Missing Value Source: NWS Daily Summary

Daily Weather History Graph

Daily Weather History Graph

Search for Another Location

Airport or City:

Trip Planner

Search our weather history database for the weather conditions in past years. The results will help you decide how hot, cold, wet, or windy it might be!

Date:

Astronomy

Sep. 04, 2011 Rise Set
Actual Time 6:00 AM MST 6:44 PM MST
Civil Twilight 5:35 AM MST 7:09 PM MST
Nautical Twilight 5:06 AM MST 7:38 PM MST
Astronomical Twilight 4:36 AM MST 8:08 PM MST
Moon 1:19 PM MST (9/4) 11:37 PM MST (9/4)
Length of Visible Light 13h 33m
Length of Day
12h 43m
Waxing Crescent, 51% of the Moon is Illuminated
Sep 4
Waxing Crescent
Sep 12
Full
Sep 20
Last Quarter
Sep 27
New
Oct 3
First Quarter

Hourly Weather History & Observations

Time (MST) Temp. Heat Index Dew Point Humidity Pressure Visibility Wind Dir Wind Speed Gust Speed Precip Events Conditions
12:53 AM 82.4 °F - 50.0 °F 32% 29.89 in 10.0 mi SSE 3.5 mph - N/A   Clear
1:53 AM 80.6 °F - 48.2 °F 32% 29.88 in 10.0 mi SSE 4.6 mph - N/A   Clear
2:53 AM 79.0 °F - 50.0 °F 36% 29.73 in 10.0 mi SE 8.1 mph - N/A   Clear
3:53 AM 79.0 °F - 52.0 °F 39% 29.72 in 10.0 mi South 4.6 mph - N/A   Clear
4:53 AM 78.8 °F - 53.6 °F 42% 29.90 in 10.0 mi SE 3.5 mph - N/A   Clear
5:53 AM 78.1 °F - 53.1 °F 42% 29.75 in 10.0 mi SSE 9.2 mph - N/A   Clear
6:53 AM 78.1 °F - 55.9 °F 46% 29.77 in 10.0 mi SSE 6.9 mph - N/A   Clear
7:53 AM 82.0 °F 81.6 °F 55.9 °F 41% 29.78 in 10.0 mi SSE 8.1 mph - N/A   Clear
8:53 AM 88.0 °F 86.1 °F 55.0 °F 32% 29.78 in 10.0 mi South 4.6 mph - N/A   Clear
9:53 AM 91.0 °F 88.5 °F 53.1 °F 27% 29.78 in 10.0 mi Variable 3.5 mph - N/A   Clear
10:53 AM 96.1 °F - 50.0 °F 21% 29.77 in 10.0 mi Calm Calm - N/A   Clear
11:53 AM 98.1 °F - 48.9 °F 19% 29.75 in 10.0 mi Calm Calm - N/A   Clear
12:53 PM 100.9 °F - 48.9 °F 17% 29.72 in 10.0 mi West 5.8 mph - N/A   Clear
1:53 PM 102.9 °F - 48.0 °F 16% 29.69 in 10.0 mi West 8.1 mph - N/A   Clear
2:53 PM 105.1 °F - 46.9 °F 14% 29.66 in 10.0 mi NNW 6.9 mph - N/A   Clear
3:53 PM 105.1 °F - 46.9 °F 14% 29.64 in 10.0 mi NW 6.9 mph - N/A   Clear
4:53 PM 102.9 °F - 46.9 °F 15% 29.65 in 10.0 mi Variable 4.6 mph - N/A   Clear
5:53 PM 99.0 °F - 48.9 °F 18% 29.67 in 10.0 mi SW 9.2 mph - N/A   Partly Cloudy
6:53 PM 96.1 °F - 52.0 °F 22% 29.70 in 10.0 mi SSE 10.4 mph - N/A   Clear
7:53 PM 93.0 °F 90.8 °F 54.0 °F 27% 29.74 in 10.0 mi South 15.0 mph - N/A   Mostly Cloudy
8:53 PM 91.0 °F 89.7 °F 57.0 °F 32% 29.77 in 10.0 mi South 13.8 mph - N/A   Clear
9:53 PM 90.0 °F 88.6 °F 57.0 °F 33% 29.78 in 10.0 mi South 11.5 mph - N/A   Clear
10:53 PM 89.1 °F 87.7 °F 57.0 °F 34% 29.80 in 10.0 mi ESE 10.4 mph - N/A   Overcast
11:53 PM 88.0 °F 86.9 °F 57.9 °F 36% 29.80 in 10.0 mi SE 15.0 mph - N/A   Partly Cloudy